Regional Weather Roundup
Issued by NWS

Home | Current Version | Previous Version | Graphics & Text | Print | Product List | Glossary On
Versions: 1 2 3 4 5 6 7 8 9 10 11 12 13 14 15 16 17 18 19 20 21 22 23 24 25 26 27 28 29 30 31 32 33 34 35 36 37 38 39 40 41 42 43 44 45 46 47 48 49 50
000
ASUS45 KTFX 231219
RWRMT
MONTANA HOURLY WEATHER ROUNDUP
NATIONAL WEATHER SERVICE GREAT FALLS MT
519 AM MST SUN NOV 23 2014

NOTE: "FAIR" INDICATES FEW OR NO CLOUDS BELOW 12000 FEET WITH NO
SIGNIFICANT WEATHER AND/OR OBSTRUCTIONS TO VISIBILITY.

* THESE STATIONS ARE NOT UNDER NWS QUALITY CONTROL. THEY DO NOT
   REPORT WEATHER SUCH AS PRECIPITATION OR FOG.

MTZ001>007-043-231300-
WEST OF THE DIVIDE
CITY           SKY/WX    TMP DP  RH WIND       PRES   REMARKS
KALISPELL      PTCLDY    27  21  78 S5        29.95R WCI  21
MISSOULA       CLOUDY    34  25  70 NW9       30.01R WCI  27
BUTTE          SNOW      25  23  92 NW10      29.92R VSB 1/2  WCI  15
MULLAN PASS    FOG       25  21  85 NW8G22    29.96R VSB 1 1/2 WCI  16
* ESSEX        N/A       34  19  54 NW2        N/A
* EUREKA APT   CLEAR     28  21  75 CALM      29.97R
* HAMILTON APT MOCLDY    36  23  59 E5        30.02R WCI  32
* LIBBY APT    CLEAR     28  23  81 CALM      30.02R
* LINCOLN      N/A       28  26  92 S4G10      N/A
* LOOKOUT PASS N/A       28  25  89 VRB4       N/A
* POLSON       N/A       34  21  59 N2G10      N/A
* RONAN APT    PTCLDY    36  25  64 N/A        N/A
* SEELEY LAKE  N/A       31  24  75 N3G15      N/A
* THOMP F APT  PTCLDY    23  16  74 N5G25      N/A   WCI  16
* YAAK HILL    N/A       27  25  92 W1         N/A
$$

MTZ008-052>055-231300-
SOUTHWEST MONTANA
CITY           SKY/WX    TMP DP  RH WIND       PRES   REMARKS
BOZEMAN        CLOUDY    28  25  89 W7        29.91R WCI  21
DILLON         MOCLDY    27  18  69 W9        29.94R WCI  18
* W YELLOWSTON PTCLDY    17  14  88 NW1G6      N/A
* ENNIS APT    MOCLDY    28  19  69 N/A        N/A
* THREE FORKS  MOCLDY    30  30 100 N/A        N/A
* BOULDER HILL N/A       28  13  53 N4G20      N/A
* MONIDA PASS  N/A       16  15  96 W7G12      N/A   WCI   6
* RAYNOLDS PAS N/A       19  14  81 NW4        N/A
* WHITEHALL    N/A       29  25  85 W8G18      N/A   WCI  21
* WISE RIVER   N/A       27  17  66 W12G24     N/A   WCI  16
$$

MTZ009>010-012-014-046-048-049-054-231300-
EAST SLOPES AND CENTRAL MONTANA
CITY           SKY/WX    TMP DP  RH WIND       PRES   REMARKS
CUT BANK       PTCLDY    28  19  69 W12       29.79R WCI  18
GREAT FALLS    CLOUDY    30  21  69 W9        29.82R WCI  22
HELENA         PTCLDY    34  23  64 NW15      29.87R WCI  24
MALMSTROM AFB  MOCLDY    34  19  54 W9        29.84R WCI  27
* CONRAD       MOCLDY    32  21  64 NW8        N/A   WCI  25
* DEARBORN     N/A       32  21  64 SE3        N/A
* EAST GLACIER N/A       29  16  58 W13        N/A   WCI  19
* MONARCH      N/A       29  12  49 W19G27     N/A   WCI  16
* PENDROY      N/A       29  17  61 W11G17     N/A   WCI  19
* ROGERS PASS  N/A       26  22  85 SE7G13     N/A   WCI  18
* SAINT MARY   N/A       30  20  66 S8G19      N/A   WCI  22
* SWEET GRASS  N/A       28  28 100 N7         N/A   WCI  21
* WHITE SULPH  N/A       30  17  58 W7G15      N/A   WCI  23
$$

MTZ011-013-016-021-035-040-045-047-050-051-231300-
NORTH CENTRAL MONTANA
CITY           SKY/WX    TMP DP  RH WIND       PRES   REMARKS
HAVRE          CLOUDY    34  25  70 W17       29.80R WCI  23
LEWISTOWN      MOCLDY    30  19  64 NW7       29.78R WCI  23
* N BAR RANCH  CLOUDY    30  19  64 NW25G33   29.73R WCI  16
* CHINOOK      MOCLDY    32  23  69 W17G23    29.78R WCI  21
* FORT BENTON  MOCLDY    32  25  75 W3        29.86R
* CHESTER      N/A       30  25  82 NW4        N/A
* DENTON       N/A       31  18  59 NW8        N/A   WCI  24
* GEYSER       N/A       32  14  47 NW12G17    N/A   WCI  23
* JUDITH GAP   N/A       32  15  49 NW16G22    N/A   WCI  21
* LOMA         N/A       34  31  89 NW5        N/A   WCI  29
$$

MTZ017>020-022>027-061-062-231300-
NORTHEAST MONTANA
CITY           SKY/WX    TMP DP  RH WIND       PRES   REMARKS
GLASGOW        LGT SNOW  27  21  78 NW25G41   29.64R VSB 2    WCI  12
GLENDIVE       CLOUDY    34  25  70 W18G32    29.58R WCI  23
JORDAN         PTCLDY    34  28  79 W20G30    29.65R WCI  23
SIDNEY         MOCLDY    28  21  75 W21G30    29.57R VSB 3    WCI  14
WOLF POINT     LGT SNOW  28  19  69 NW28G38   29.62R WCI  13
* BEAVER HILL  N/A       34  25  70 W37G55     N/A   WCI  19
* CIRCLE       N/A       33  27  79 NW14G33    N/A   WCI  23
* LINDSAY DVD  N/A       31  26  82 W23G35     N/A   WCI  18
* NAVAJO       N/A       18  12  77 NW27G43    N/A   WCI  -1
* PLENTYWOOD A CLOUDY    18  16  92 NW31G36   29.47R VSB 3/4  WCI  -2
* POPLAR APT   MOCLDY    27  19  72 N/A       29.57R VSB 3
* SACO         N/A       30  22  72 W23        N/A   WCI  17
$$

MTZ028>042-056>058-231300-
SOUTHCENTRAL AND SOUTHEAST MONTANA
CITY           SKY/WX    TMP DP  RH WIND       PRES   REMARKS
BAKER          CLOUDY    36  27  70 W29G38    29.56R WCI  23
BILLINGS       PTCLDY    34  16  48 W17G26    29.78R WCI  23
LIVINGSTON     CLOUDY    32  21  64 W16G21    29.84R WCI  21
MILES CITY     PTCLDY    36  27  70 W25G33    29.65R WCI  24
* BIG TIMBER A MOCLDY    32  19  59 W17       29.82R WCI  21
* FORSYTH APT  MOCLDY    37  25  62 W16G31    29.72R WCI  28
* LAUREL APT   PTCLDY    36  16  44 W16G22     N/A   WCI  26
* ALZADA       N/A       31  21  66 SW12       N/A   WCI  22
* HYSHAM       N/A       32  16  52 NW7G17     N/A   WCI  25
* REED POINT   N/A       36  20  52 W20G27     N/A   WCI  25
* ROSCOE HILL  N/A       30  14  51 W11G27     N/A   WCI  21
$$

REGIONAL REPORTS...DAKOTAS
CITY           SKY/WX    TMP DP  RH WIND       PRES   REMARKS
WILLISTON      LGT SNOW  25  19  78 W22G35    29.50R VSB 1 1/2 WCI  10
DICKINSON      CLOUDY    36  28  73 W20G29    29.45R WCI  25
BEACH          N/A       34  28  79 NW30G46   29.54R WCI  20
CROSBY         CLOUDY    23  21  92 NW29G40   29.41R WCI   6
TIOGA          LGT SNOW  23  21  92 W33G43    29.43R WCI   5
BISMARCK       CLOUDY    39  32  76 W13       29.45R WCI  31
GRAND FORKS    LGT RAIN  34  30  85 S5        29.35F WCI  29
FARGO          FOG       34  30  85 SE5       29.39S WCI  29
BUFFALO SD     CLEAR     36  25  64 W30G39    29.51R WCI  23
RAPID CITY     CLEAR     34  19  54 NW15G23   29.63R WCI  24
$$

REGIONAL REPORTS...WYOMING/IDAHO/WASHINGTON
CITY           SKY/WX    TMP DP  RH WIND       PRES   REMARKS
SHERIDAN       PTCLDY    32  18  56 NW16      29.75R WCI  21
CODY           PTCLDY    27  12  53 NE3       29.79R
YELLOWSTONE LA PTCLDY    18  12  77 VRB6      29.85R WCI  10
SALMON         MOCLDY    27  25  92 CALM      30.05R
MULLAN PASS    FOG       25  21  85 NW8G22    29.96S VSB 1 1/2 WCI  16
SAND POINT     CLOUDY    32  32 100 SW5       30.09R WCI  27
SPOKANE        PTCLDY    30  28  92 SW10      30.09R WCI  21
$$

REGIONAL REPORTS...ALBERTA
CITY           SKY/WX    TMP DP  RH WIND       PRES   REMARKS
CALGARY        CLOUDY    25  21  85 E3        29.77R
LETHBRIDGE     CLEAR     25  23  92 S8        29.81R WCI  16
MEDICINE HAT   CLOUDY    25  23  92 SW5       29.82R WCI  19
EDMONTON       PTCLDY     5   3  91 SW3       29.78R
WATERTON GATE  N/A       32  14  47 SW16G29    N/A   WCI  21
CARDSTON       N/A       32  18  56 W15G22     N/A   WCI  22
MILK RIVER     N/A       27  25  92 NW2        N/A
$$

REGIONAL REPORTS...SASKATCHEWAN
CITY           SKY/WX    TMP DP  RH WIND       PRES   REMARKS
SWIFT CURRENT  LGT SNOW  19  18  96 NW24      29.63R VSB 2    WCI   2
REGINA         LGT SNOW  16  12  84 NW22G31   29.54R WCI  -2
VAL MARIE      N/A       25  19  78 NW25G37    N/A   WCI   9
ASSINIBOIA     N/A       14  10  84 NW24G31    N/A   WCI  -5
CORONACH       N/A       18  12  77 NW29G36    N/A   WCI  -1

$$




USA.gov is the U.S. government's official web portal to all federal, state and local government web resources and services.